Location: Chanteloup
(48.8560°N, 2.7390°E)
Time: 23:20:12
(UTC+00:00)

Cosmos 2322 Rocket - Pass Details

Date: 05 June 2022
Orbit: 833 x 850 km, 71.0° (Epoch: 03 July)

Event Time Altitude Azimuth Distance (km) Brightness Sun altitude
Rises 21:27:39 0° 236° (SW) 3,371 5.3 -12.0°
Reaches altitude 10° 21:30:18 10° 245° (WSW) 2,441 4.7 -12.2°
Maximum altitude 21:35:23 35° 310° (NW) 1,330 3.9 -12.7°
Drops below altitude 10° 21:40:31 10° 16° (NNE) 2,456 5.3 -13.1°
Sets 21:43:11 0° 25° (NNE) 3,396 5.9 -13.3°
